Stations météo

réclame
Mon MeteoGroup
Semmerzake, Belgique (6428): Température de l'air & dewpoint: 12.11.2018 05:00:00 - 18.11.2018 05:00:00 (CET)Semmerzake, Belgique (6428): Vitesse du vent & gusts: 12.11.2018 05:00:00 - 18.11.2018 05:00:00 (CET)Semmerzake, Belgique (6428): Direction du vent: 12.11.2018 05:00:00 - 18.11.2018 05:00:00 (CET)Semmerzake, Belgique (6428): reduced air pressure: 12.11.2018 05:00:00 - 18.11.2018 05:00:00 (CET)Semmerzake, Belgique (6428): visibility: 12.11.2018 05:00:00 - 18.11.2018 05:00:00 (CET)
Date & Time tt [°C] td [°C] ff [km/h] ff [knt] fx [km/h] fx [knt] dd ppp [hPa] vv [km]
18.11.2018 05:00:00 2,0 -1,7 14 8 25 14 ENE 1028,7 18
18.11.2018 04:00:00 2,0 -1,4 11 6 - - ENE 1028,9 18
18.11.2018 03:00:00 2,4 -1,2 11 6 22 12 ENE 1028,7 20
18.11.2018 02:00:00 2,8 -1,1 11 6 25 14 ENE 1028,7 19
18.11.2018 01:00:00 3,7 -1,0 11 6 - - ENE 1028,7 20
18.11.2018 00:00:00 3,5 -0,5 14 8 25 14 ENE 1028,5 19
17.11.2018 23:00:00 4,2 0,0 14 8 29 16 ENE 1028,7 15
17.11.2018 22:00:00 4,5 0,6 14 8 - - ENE 1028,4 16
17.11.2018 21:00:00 5,1 1,3 14 8 32 18 ENE 1028,5 13
17.11.2018 20:00:00 5,9 1,6 18 10 29 16 ENE 1028,0 15
17.11.2018 19:00:00 6,3 1,4 14 8 - - ENE 1028,0 17
17.11.2018 18:00:00 6,8 0,8 11 6 29 16 ENE 1027,9 20
17.11.2018 17:00:00 7,3 1,5 14 8 29 16 ENE 1027,9 20
17.11.2018 16:00:00 8,2 2,2 14 8 - - ENE 1027,5 20
17.11.2018 15:00:00 8,4 2,7 11 6 29 16 ENE 1027,9 16
17.11.2018 14:00:00 7,9 2,6 14 8 25 14 ENE 1028,2 16
17.11.2018 13:00:00 7,1 3,0 11 6 - - ENE 1028,5 15
17.11.2018 12:00:00 5,6 2,7 11 6 22 12 ENE 1028,9 13
17.11.2018 11:00:00 3,7 2,1 11 6 18 10 ENE 1029,0 9
17.11.2018 10:00:00 2,2 1,5 11 6 - - ENE 1028,7 6
17.11.2018 09:00:00 1,0 0,9 7 4 14 8 E 1029,0 3,6
17.11.2018 08:00:00 0,3 0,2 4 2 11 6 N 1028,5 3,1
17.11.2018 07:00:00 0,8 0,7 7 4 - - ENE 1028,5 0,6
17.11.2018 06:00:00 1,2 1,2 7 4 11 6 ENE 1028,5 0,5
17.11.2018 05:00:00 1,2 1,2 7 4 11 6 ENE 1028,7 0,1
17.11.2018 04:00:00 1,7 1,6 4 2 - - N 1028,5 0,1
17.11.2018 03:00:00 2,4 2,3 7 4 11 6 N 1028,7 0,1
17.11.2018 02:00:00 3,0 3,0 4 2 7 4 N 1028,5 0,1
17.11.2018 01:00:00 3,6 3,6 4 2 - - N 1028,2 0,2
17.11.2018 00:00:00 4,1 4,1 4 2 11 6 N 1028,2 0,1
16.11.2018 23:00:00 4,6 4,6 4 2 11 6 N 1028,2 0,3
16.11.2018 22:00:00 5,3 5,3 4 2 - - N 1028,0 1,8
16.11.2018 21:00:00 5,8 5,7 4 2 7 4 N 1028,0 4,4
16.11.2018 20:00:00 6,1 6,1 4 2 14 8 N 1027,9 5
16.11.2018 19:00:00 6,1 6,1 7 4 - - ESE 1027,5 1,6
16.11.2018 18:00:00 5,9 5,9 7 4 14 8 E 1027,2 0,3
16.11.2018 17:00:00 5,9 5,9 7 4 11 6 E 1027,2 0,4
16.11.2018 16:00:00 5,9 5,9 4 2 - - N 1027,2 0,4
16.11.2018 15:00:00 5,8 5,8 7 4 14 8 E 1027,2 0,4
16.11.2018 14:00:00 5,9 5,9 7 4 11 6 N 1027,5 1,3
16.11.2018 13:00:00 5,9 5,9 4 2 - - N 1027,7 2,4
16.11.2018 12:00:00 5,9 5,9 7 4 14 8 SE 1027,7 0,8
16.11.2018 11:00:00 5,8 5,8 7 4 14 8 SE 1027,7 1,5
16.11.2018 10:00:00 5,9 5,9 4 2 - - N 1027,5 1,6
16.11.2018 09:00:00 5,7 5,7 4 2 7 4 - 1027,2 1,8
16.11.2018 08:00:00 5,8 5,8 4 2 11 6 N 1026,7 0,9
16.11.2018 07:00:00 5,8 5,8 7 4 - - S 1026,2 1,2
16.11.2018 06:00:00 5,8 5,8 7 4 14 8 SSE 1026,0 2,3
16.11.2018 05:00:00 5,8 5,8 11 6 14 8 S 1025,7 1,4
16.11.2018 04:00:00 5,9 5,9 7 4 - - SSW 1025,7 1,0
16.11.2018 03:00:00 6,0 6,0 7 4 14 8 SSE 1025,5 0,4
16.11.2018 02:00:00 6,3 6,3 7 4 18 10 S 1025,5 0,4
16.11.2018 01:00:00 6,5 6,5 11 6 - - S 1025,2 0,4
16.11.2018 00:00:00 6,8 6,7 11 6 18 10 S 1025,0 0,3
15.11.2018 23:00:00 7,3 7,3 11 6 14 8 SSW 1025,0 0,2
15.11.2018 22:00:00 7,8 7,8 11 6 - - S 1024,7 1,7
15.11.2018 21:00:00 7,9 7,9 11 6 18 10 S 1024,5 1,6
15.11.2018 20:00:00 8,1 8,1 11 6 18 10 S 1024,4 0,3
15.11.2018 19:00:00 8,3 8,3 11 6 - - S 1024,0 1,7
15.11.2018 18:00:00 8,1 7,8 4 2 11 6 N 1023,7 2,7
15.11.2018 17:00:00 9,2 8,2 4 2 7 4 N 1023,5 4,8
15.11.2018 16:00:00 10,8 8,7 4 2 - - N 1023,6 6
15.11.2018 15:00:00 11,4 8,8 4 2 11 6 N 1023,6 11
15.11.2018 14:00:00 11,3 8,7 7 4 14 8 SW 1023,7 10
15.11.2018 13:00:00 11,6 7,9 7 4 - - SSE 1024,0 15
15.11.2018 12:00:00 10,9 7,2 7 4 14 8 SSE 1024,0 18
15.11.2018 11:00:00 9,8 6,7 11 6 14 8 SSE 1024,5 20
15.11.2018 10:00:00 8,6 6,0 7 4 - - SSE 1024,5 19
15.11.2018 09:00:00 6,9 5,5 7 4 11 6 S 1024,4 12
15.11.2018 08:00:00 6,4 5,2 7 4 14 8 S 1024,0 11
15.11.2018 07:00:00 6,6 5,5 11 6 - - SSE 1024,0 10
15.11.2018 06:00:00 6,2 5,2 7 4 11 6 SE 1024,0 10
15.11.2018 05:00:00 7,0 5,6 7 4 11 6 SSE 1023,8 14
15.11.2018 04:00:00 7,0 5,4 7 4 - - SSE 1023,8 19
15.11.2018 03:00:00 7,0 5,4 4 2 11 6 N 1024,0 19
15.11.2018 02:00:00 6,9 4,8 7 4 7 4 S 1024,0 20
15.11.2018 01:00:00 7,0 4,5 4 2 - - N 1024,4 20
15.11.2018 00:00:00 7,5 4,4 4 2 11 6 N 1024,5 20
14.11.2018 23:00:00 7,5 4,6 7 4 14 8 N 1024,5 20
14.11.2018 22:00:00 8,3 4,6 7 4 - - S 1024,5 20
14.11.2018 21:00:00 8,8 5,1 7 4 11 6 SSE 1024,5 20
14.11.2018 20:00:00 9,1 5,5 7 4 14 8 SE 1024,9 20
14.11.2018 19:00:00 9,8 6,0 11 6 - - SE 1025,0 20
14.11.2018 18:00:00 9,6 6,5 7 4 14 8 SE 1025,2 20
14.11.2018 17:00:00 11,9 6,9 11 6 18 10 SSE 1025,2 20
14.11.2018 16:00:00 12,8 8,0 7 4 - - SSE 1025,7 20
14.11.2018 15:00:00 12,9 7,7 11 6 22 12 S 1025,9 20
14.11.2018 14:00:00 12,6 7,8 14 8 22 12 S 1026,2 20
14.11.2018 13:00:00 11,7 7,7 14 8 - - S 1026,7 20
14.11.2018 12:00:00 11,4 8,1 11 6 14 8 S 1027,2 18
14.11.2018 11:00:00 10,0 7,6 11 6 18 10 S 1027,9 20
14.11.2018 10:00:00 7,8 6,5 11 6 - - S 1027,9 14
14.11.2018 09:00:00 6,6 5,7 7 4 14 8 SSE 1027,7 12
14.11.2018 08:00:00 6,1 5,6 4 2 14 8 N 1027,7 9
14.11.2018 07:00:00 6,4 5,8 11 6 - - S 1027,2 9
14.11.2018 06:00:00 6,6 5,8 11 6 18 10 S 1027,2 11
14.11.2018 05:00:00 7,0 5,9 14 8 18 10 S 1027,5 17
14.11.2018 04:00:00 7,1 6,0 11 6 - - S 1028,0 17
14.11.2018 03:00:00 7,5 6,2 11 6 18 10 S 1028,7 19
14.11.2018 02:00:00 7,6 6,5 11 6 14 8 S 1028,9 18
14.11.2018 01:00:00 7,6 6,4 11 6 - - S 1029,0 20
14.11.2018 00:00:00 8,1 6,7 11 6 14 8 S 1029,0 19
13.11.2018 23:00:00 8,5 6,9 11 6 14 8 S 1029,0 20
13.11.2018 22:00:00 9,2 7,0 11 6 - - S 1028,9 20
13.11.2018 21:00:00 10,4 7,8 14 8 22 12 SSW 1028,5 20
13.11.2018 20:00:00 10,7 8,2 11 6 18 10 SSW 1028,2 20
13.11.2018 19:00:00 10,3 8,3 11 6 - - SSW 1027,9 20
13.11.2018 18:00:00 10,8 8,0 11 6 22 12 SW 1027,5 20
13.11.2018 17:00:00 11,3 8,0 11 6 25 14 SW 1027,0 20
13.11.2018 16:00:00 12,5 8,2 14 8 - - SW 1026,2 20
13.11.2018 15:00:00 12,8 7,8 18 10 36 19 SW 1025,5 20
13.11.2018 14:00:00 12,8 8,3 18 10 43 23 SW 1025,0 20
13.11.2018 13:00:00 12,5 8,2 22 12 - - SW 1024,5 20
13.11.2018 12:00:00 11,3 8,2 22 12 36 19 SSW 1024,0 20
13.11.2018 11:00:00 10,5 8,4 18 10 43 23 SW 1023,6 20
13.11.2018 10:00:00 10,0 7,7 22 12 - - SSW 1022,6 20
13.11.2018 09:00:00 9,6 8,1 18 10 40 21 SW 1022,0 20
13.11.2018 08:00:00 9,8 7,9 22 12 32 18 SSW 1020,7 20
13.11.2018 07:00:00 9,8 8,1 22 12 - - SSW 1020,3 20
13.11.2018 06:00:00 9,5 8,1 22 12 36 19 SSW 1019,6 16
13.11.2018 05:00:00 9,8 8,3 25 14 36 19 SSW 1019,0 12
13.11.2018 04:00:00 9,5 8,3 18 10 - - S 1018,7 9
13.11.2018 03:00:00 9,6 8,3 18 10 29 16 S 1018,7 9
13.11.2018 02:00:00 9,6 8,2 18 10 32 18 S 1018,5 10
13.11.2018 01:00:00 9,6 8,1 18 10 - - S 1017,8 11
13.11.2018 00:00:00 9,6 8,0 14 8 22 12 S 1017,7 18
12.11.2018 23:00:00 9,3 7,8 14 8 22 12 S 1017,7 20
12.11.2018 22:00:00 9,5 7,8 14 8 - - S 1017,5 20
12.11.2018 21:00:00 9,6 8,0 14 8 22 12 S 1017,5 20
12.11.2018 20:00:00 9,4 8,0 14 8 25 14 S 1017,2 20
12.11.2018 19:00:00 9,6 8,1 18 10 - - S 1016,7 20
12.11.2018 18:00:00 9,7 8,4 14 8 22 12 S 1016,2 20
12.11.2018 17:00:00 10,1 8,5 11 6 22 12 S 1015,3 20
12.11.2018 16:00:00 10,8 9,3 11 6 - - SSW 1015,2 20
12.11.2018 15:00:00 10,8 9,2 11 6 22 12 SSW 1014,5 20
12.11.2018 14:00:00 10,8 9,4 7 4 14 8 SW 1014,0 20
12.11.2018 13:00:00 10,6 9,7 7 4 - - SSW 1013,5 16
12.11.2018 12:00:00 10,0 9,6 7 4 11 6 N 1013,8 6
12.11.2018 11:00:00 10,0 9,7 4 2 7 4 N 1013,2 10
12.11.2018 10:00:00 10,0 10,0 4 2 - - N 1012,2 2,9
12.11.2018 09:00:00 10,0 10,0 4 2 7 4 N 1012,2 3,1
12.11.2018 08:00:00 9,8 9,8 4 2 7 4 N 1012,0 3,6
12.11.2018 07:00:00 9,8 9,8 4 2 - - N 1011,3 6
12.11.2018 06:00:00 10,0 9,8 7 4 11 6 S 1011,2 4,7
12.11.2018 05:00:00 10,1 9,8 4 2 14 8 N 1010,7 5

tt = Température de l'air
td = dewpoint
ff = Vitesse du vent
fx = gusts
dd = Direction du vent
ppp = reduced air pressure
vv = visibility

stations d'obs. à proximité